Date String (YYYY-MM-DD hh:mm:ss) UTC,Instrument flags,Ambient pressure (hPa),Sample flow (lpm),Bypass flow (lpm),Sample temperature (°C),Ambient temperature (°C),ASC tube jacket temperature (°C),LED temperature (°C),Box temperature (°C),Sample RH (%),Span deviation,Mass concentration (μg/m³),Mass concentration (μg/m³),Mass concentration (μg/m³)
DateTimeUTC,F1_M11,P_M11,Q1_M11,Q2_M11,T1_M11,T2_M11,T3_M11,T4_M11,T5_M11,U1_M11,ZSPAN_M11,X0_M11,X2_M11,X1_M11
2022-10-16 12:00:00,,0833.9,5.01,0.00,29.7,28.1,00.0,38.6,31.5,17.5,0000.8,0012.89,0008.50,0007.99
2022-10-16 12:01:00,,0833.9,5.00,0.00,29.7,28.1,00.0,38.6,31.5,17.6,0000.1,0013.38,0008.51,0007.99
2022-10-16 12:02:00,,0833.9,4.99,0.00,29.7,28.1,00.0,38.5,31.5,17.6,0000.3,0013.51,0008.54,0007.99
2022-10-16 12:03:00,,0833.9,5.00,0.00,29.7,28.1,00.0,38.5,31.5,17.5,0000.9,0013.53,0008.55,0007.98
2022-10-16 12:04:00,,0833.9,5.00,0.00,29.7,28.1,00.0,38.5,31.5,17.5,0001.0,0013.74,0008.57,0007.97
2022-10-16 12:05:00,,0833.9,5.00,0.00,29.7,28.1,00.0,38.5,31.5,17.5,0001.0,0013.91,0008.58,0007.97
2022-10-16 12:06:00,,0833.9,5.00,0.00,29.7,28.1,00.0,38.5,31.5,17.5,0000.8,0014.05,0008.61,0007.97
2022-10-16 12:07:00,,0833.9,5.00,0.00,29.7,28.1,00.0,38.5,31.5,17.5,0000.7,0014.04,0008.64,0007.97
2022-10-16 12:08:00,,0833.8,5.00,0.00,29.7,28.1,00.0,38.5,31.5,17.5,0000.8,0014.10,0008.65,0007.99
2022-10-16 12:09:00,,0833.8,5.00,0.00,29.7,28.1,00.0,38.5,31.5,17.5,0000.7,0014.00,0008.64,0007.98
2022-10-16 12:10:00,,0833.9,5.00,0.00,29.7,28.1,00.0,38.5,31.5,17.5,0001.0,0014.11,0008.63,0007.97
2022-10-16 12:11:00,,0833.9,5.00,0.00,29.7,28.1,00.0,38.5,31.5,17.5,0001.8,0013.57,0008.65,0007.97
2022-10-16 12:12:00,,0833.9,4.99,0.00,29.7,28.1,00.0,38.5,31.5,17.5,0002.6,0013.07,0008.62,0007.97
2022-10-16 12:13:00,,0833.9,4.99,0.00,29.7,28.1,00.0,38.5,31.5,17.6,0003.0,0012.94,0008.59,0007.97
2022-10-16 12:14:00,,0833.9,5.00,0.00,29.7,28.1,00.0,38.5,31.5,17.6,0003.0,0012.91,0008.57,0007.96
2022-10-16 12:15:00,,0833.9,5.00,0.00,29.7,28.1,00.0,38.5,31.5,17.6,0000.5,0012.82,0008.58,0007.97
2022-10-16 12:16:00,,0833.9,5.00,0.00,29.7,28.1,00.0,38.5,31.5,17.6,0000.0,0012.57,0008.57,0007.97
2022-10-16 12:17:00,,0833.9,5.00,0.00,29.7,28.1,00.0,38.5,31.4,17.6,0000.0,0012.98,0008.51,0007.94
2022-10-16 12:18:00,,0833.9,5.00,0.00,29.7,28.1,00.0,38.5,31.4,17.6,0000.0,0013.24,0008.47,0007.93
2022-10-16 12:19:00,,0833.9,5.00,0.00,29.7,28.1,00.0,38.5,31.5,17.6,0000.0,0012.76,0008.45,0007.91
2022-10-16 12:20:00,,0833.9,4.99,0.00,29.7,28.2,00.0,38.5,31.5,17.6,0001.2,0012.67,0008.46,0007.91
2022-10-16 12:21:00,,0833.8,5.00,0.00,29.7,28.2,00.0,38.5,31.4,17.6,0001.4,0012.41,0008.46,0007.90
2022-10-16 12:22:00,,0833.9,5.00,0.00,29.7,28.2,00.0,38.5,31.5,17.6,0000.0,0012.98,0008.44,0007.88
2022-10-16 12:23:00,,0833.9,5.00,0.00,29.7,28.2,00.0,38.5,31.5,17.6,0000.0,0013.02,0008.42,0007.86
2022-10-16 12:24:00,,0833.9,5.01,0.00,29.7,28.2,00.0,38.5,31.4,17.6,0000.0,0013.04,0008.41,0007.84
2022-10-16 12:25:00,,0833.8,5.00,0.00,29.7,28.2,00.0,38.5,31.4,17.6,0000.0,0013.21,0008.41,0007.83
2022-10-16 12:26:00,,0833.9,5.00,0.00,29.7,28.2,00.0,38.5,31.4,17.5,0000.0,0013.20,0008.36,0007.80
2022-10-16 12:27:00,,0833.8,5.00,0.00,29.7,28.2,00.0,38.5,31.4,17.5,0000.0,0013.82,0008.40,0007.78
2022-10-16 12:28:00,,0833.9,4.98,0.00,29.7,28.2,00.0,38.5,31.4,17.6,0000.6,0013.64,0008.46,0007.79
2022-10-16 12:29:00,,0833.8,5.00,0.00,29.7,28.2,00.0,38.5,31.4,17.6,0000.7,0013.33,0008.46,0007.79
2022-10-16 12:30:00,,0833.9,5.00,0.00,29.7,28.2,00.0,38.5,31.4,17.5,0001.6,0013.36,0008.44,0007.78
2022-10-16 12:31:00,,0833.9,5.00,0.00,29.7,28.2,00.0,38.5,31.5,17.5,0000.9,0013.44,0008.45,0007.77
2022-10-16 12:32:00,,0833.9,5.00,0.00,29.7,28.2,00.0,38.5,31.4,17.5,0001.2,0013.45,0008.43,0007.76
2022-10-16 12:33:00,,0834.0,5.00,0.00,29.7,28.2,00.0,38.5,31.4,17.5,0001.9,0012.82,0008.43,0007.77
2022-10-16 12:34:00,,0833.9,5.00,0.00,29.7,28.2,00.0,38.5,31.5,17.5,0001.2,0012.72,0008.47,0007.80
2022-10-16 12:35:00,,0834.0,5.00,0.00,29.7,28.2,00.0,38.5,31.5,17.5,0000.7,0012.78,0008.49,0007.80
2022-10-16 12:36:00,,0833.9,5.00,0.00,29.7,28.2,00.0,38.5,31.4,17.5,0000.1,0013.04,0008.50,0007.81
2022-10-16 12:37:00,,0834.0,5.00,0.00,29.7,28.2,00.0,38.5,31.4,17.6,0000.8,0013.19,0008.51,0007.82
2022-10-16 12:38:00,,0834.0,5.01,0.00,29.7,28.2,00.0,38.5,31.4,17.5,0001.5,0012.77,0008.49,0007.85
2022-10-16 12:39:00,,0834.0,5.00,0.00,29.7,28.2,00.0,38.5,31.5,17.5,0000.4,0012.24,0008.44,0007.86
2022-10-16 12:40:00,,0834.0,4.99,0.00,29.7,28.2,00.0,38.5,31.4,17.6,0000.1,0012.78,0008.46,0007.87
2022-10-16 12:41:00,,0834.0,5.00,0.00,29.7,28.2,00.0,38.5,31.4,17.6,0000.0,0013.09,0008.43,0007.87
2022-10-16 12:42:00,,0834.0,5.00,0.00,29.7,28.2,00.0,38.5,31.5,17.6,0000.0,0012.97,0008.39,0007.87
2022-10-16 12:43:00,,0834.0,5.00,0.00,29.7,28.2,00.0,38.5,31.5,17.6,0000.0,0012.90,0008.39,0007.87
2022-10-16 12:44:00,,0834.0,5.00,0.00,29.7,28.2,00.0,38.5,31.5,17.6,0000.0,0012.76,0008.36,0007.87
2022-10-16 12:45:00,,0834.0,5.00,0.00,29.7,28.2,00.0,38.5,31.4,17.6,0000.0,0012.75,0008.32,0007.86
2022-10-16 12:46:00,,0834.0,5.00,0.00,29.7,28.2,00.0,38.5,31.5,17.6,0000.0,0012.74,0008.32,0007.85
2022-10-16 12:47:00,,0834.1,5.00,0.00,29.7,28.2,00.0,38.5,31.5,17.6,0000.8,0012.75,0008.31,0007.86
2022-10-16 12:48:00,,0834.0,5.00,0.00,29.7,28.2,00.0,38.5,31.5,17.6,0000.6,0012.60,0008.36,0007.88
2022-10-16 12:49:00,,0834.0,5.00,0.00,29.7,28.2,00.0,38.5,31.5,17.6,0000.4,0012.62,0008.36,0007.91
2022-10-16 12:50:00,,0834.0,5.00,0.00,29.7,28.2,00.0,38.5,31.5,17.6,0000.8,0012.68,0008.41,0007.93
2022-10-16 12:51:00,,0834.0,5.00,0.00,29.7,28.2,00.0,38.5,31.5,17.6,0001.1,0012.41,0008.46,0007.98
2022-10-16 12:52:00,,0834.0,5.00,0.00,29.7,28.2,00.0,38.5,31.5,17.6,0001.1,0011.99,0008.53,0008.03
2022-10-16 12:53:00,,0834.1,5.01,0.00,29.7,28.2,00.0,38.5,31.5,17.5,0001.3,0011.97,0008.59,0008.08
2022-10-16 12:54:00,,0834.0,5.00,0.00,29.7,28.2,00.0,38.5,31.5,17.5,0001.3,0011.99,0008.62,0008.12
2022-10-16 12:55:00,,0834.1,5.00,0.00,29.7,28.2,00.0,38.5,31.5,17.5,0001.5,0012.11,0008.67,0008.16
2022-10-16 12:56:00,,0834.1,5.00,0.00,29.7,28.2,00.0,38.5,31.4,17.6,0001.5,0012.18,0008.73,0008.20
2022-10-16 12:57:00,,0834.0,5.01,0.00,29.7,28.2,00.0,38.5,31.4,17.5,0001.4,0012.36,0008.81,0008.27
2022-10-16 12:58:00,,0834.1,5.00,0.00,29.7,28.2,00.0,38.5,31.5,17.5,0001.4,0012.14,0008.88,0008.33
2022-10-16 12:59:00,,0834.0,5.00,0.00,29.7,28.2,00.0,38.5,31.5,17.5,0001.3,0012.27,0008.88,0008.34
